Location: ?
(35.4214°N, 139.3011°E)
Time: 22:34:23
(UTC+00:00)

SAR-Lupe-2 - Pass Details

Date: 14 July 2020
Orbit: 482 x 484 km, 98.1° (Epoch: 09 August)

Event Time Altitude Azimuth Distance (km) Brightness Sun altitude
Rises 11:39:16 0° 19° (NNE) 2,550 7.6 -17.5°
Reaches altitude 10° 11:41:25 10° 26° (NNE) 1,665 6.5 -17.8°
Enters shadow 11:44:46 44° 96° (E) 679 3.9 -18.3°
